<?xml version='1.0' encoding='UTF-8'?>
<gpx xmlns="http://www.topografix.com/GPX/1/1" creator="www.balnam.be" version="1.1" xmlns:xsi="http://www.w3.org/2001/XMLSchema-instance" xsi:schemaLocation="http://www.topografix.com/GPX/1/1 http://www.topografix.com/GPX/1/1/gpx.xsd">
<trk>
<name>lfxro1</name>
<cmt>s</cmt>
<desc>Roloux Chemin n°1 </desc>
<link href="https://chemins.be/roloux/chemin/1"/><trkseg>
<trkpt lat="50.650659" lon="5.385557"><time>2026-05-02T18:14:28Z</time></trkpt>
<trkpt lat="50.649961" lon="5.377704"><time>2026-05-02T18:24:28Z</time></trkpt>
</trkseg>
</trk>
<trk>
<name>lfxro11</name>
<cmt>s</cmt>
<desc>Roloux Sentier n°11 </desc>
<link href="https://chemins.be/roloux/sentier/11"/><trkseg>
<trkpt lat="50.646810" lon="5.373596"><time>2026-05-02T18:14:28Z</time></trkpt>
<trkpt lat="50.645836" lon="5.377744"><time>2026-05-02T18:24:28Z</time></trkpt>
<trkpt lat="50.639123" lon="5.389007"><time>2026-05-02T18:34:28Z</time></trkpt>
</trkseg>
</trk>
<trk>
<name>lfxro13</name>
<cmt>v</cmt>
<desc>Roloux Sentier n°13 </desc>
<link href="https://chemins.be/roloux/sentier/13"/><trkseg>
<trkpt lat="50.647940" lon="5.397988"><time>2026-05-02T18:14:28Z</time></trkpt>
<trkpt lat="50.647205" lon="5.397029"><time>2026-05-02T18:24:28Z</time></trkpt>
<trkpt lat="50.646607" lon="5.395327"><time>2026-05-02T18:34:28Z</time></trkpt>
<trkpt lat="50.646058" lon="5.394493"><time>2026-05-02T18:44:28Z</time></trkpt>
</trkseg></trk>
<trk>
<name>lfxro13</name>
<cmt>s</cmt>
<desc>Roloux Sentier n°13 </desc>
<link href="https://chemins.be/roloux/sentier/13"/><trkseg>
<trkpt lat="50.646058" lon="5.394493"><time>2026-05-02T18:44:28Z</time></trkpt>
<trkpt lat="50.645392" lon="5.393482"><time>2026-05-02T18:54:28Z</time></trkpt>
<trkpt lat="50.641573" lon="5.389677"><time>2026-05-02T19:04:28Z</time></trkpt>
<trkpt lat="50.640784" lon="5.389463"><time>2026-05-02T19:14:28Z</time></trkpt>
<trkpt lat="50.640322" lon="5.388911"><time>2026-05-02T19:24:28Z</time></trkpt>
<trkpt lat="50.639597" lon="5.388328"><time>2026-05-02T19:34:28Z</time></trkpt>
</trkseg>
</trk>
<trk>
<name>lfxro14</name>
<cmt>q</cmt>
<desc>Roloux Sentier n°14 </desc>
<link href="https://chemins.be/roloux/sentier/14"/><trkseg>
<trkpt lat="50.653012" lon="5.400614"><time>2026-05-02T18:14:28Z</time></trkpt>
<trkpt lat="50.653257" lon="5.399025"><time>2026-05-02T18:24:28Z</time></trkpt>
<trkpt lat="50.653638" lon="5.396551"><time>2026-05-02T18:34:28Z</time></trkpt>
<trkpt lat="50.655778" lon="5.391830"><time>2026-05-02T18:44:28Z</time></trkpt>
<trkpt lat="50.656413" lon="5.388740"><time>2026-05-02T18:54:28Z</time></trkpt>
</trkseg>
</trk>
<trk>
<name>lfxro15</name>
<cmt>q</cmt>
<desc>Roloux Chemin n°15 </desc>
<link href="https://chemins.be/roloux/chemin/15"/><trkseg>
<trkpt lat="50.645819" lon="5.401651"><time>2026-05-02T18:14:28Z</time></trkpt>
<trkpt lat="50.645011" lon="5.402652"><time>2026-05-02T18:24:28Z</time></trkpt>
<trkpt lat="50.644295" lon="5.406629"><time>2026-05-02T18:34:28Z</time></trkpt>
</trkseg>
</trk>
<trk>
<name>lfxro16</name>
<cmt>q</cmt>
<desc>Roloux Sentier n°16 </desc>
<link href="https://chemins.be/roloux/sentier/16"/><trkseg>
<trkpt lat="50.652940" lon="5.393804"><time>2026-05-02T18:14:28Z</time></trkpt>
<trkpt lat="50.654980" lon="5.393790"><time>2026-05-02T18:24:28Z</time></trkpt>
<trkpt lat="50.657307" lon="5.393119"><time>2026-05-02T18:34:28Z</time></trkpt>
</trkseg>
</trk>
<trk>
<name>lfxro17</name>
<cmt>q</cmt>
<desc>Roloux Sentier n°17 </desc>
<link href="https://chemins.be/roloux/sentier/17"/><trkseg>
<trkpt lat="50.651289" lon="5.390786"><time>2026-05-02T18:14:28Z</time></trkpt>
<trkpt lat="50.651874" lon="5.391681"><time>2026-05-02T18:24:28Z</time></trkpt>
<trkpt lat="50.652932" lon="5.393881"><time>2026-05-02T18:34:28Z</time></trkpt>
<trkpt lat="50.654293" lon="5.395097"><time>2026-05-02T18:44:28Z</time></trkpt>
</trkseg>
</trk>
<trk>
<name>lfxro18</name>
<cmt>q</cmt>
<desc>Roloux Sentier n°18 </desc>
<link href="https://chemins.be/roloux/sentier/18"/><trkseg>
<trkpt lat="50.651495" lon="5.392923"><time>2026-05-02T18:14:28Z</time></trkpt>
<trkpt lat="50.650470" lon="5.394525"><time>2026-05-02T18:24:28Z</time></trkpt>
<trkpt lat="50.649749" lon="5.395111"><time>2026-05-02T18:34:28Z</time></trkpt>
<trkpt lat="50.649459" lon="5.396020"><time>2026-05-02T18:44:28Z</time></trkpt>
</trkseg>
</trk>
<trk>
<name>lfxro18bis</name>
<cmt>q</cmt>
<desc>Roloux Sentier n°18bis </desc>
<link href="https://chemins.be/roloux/sentier/18bis"/><trkseg>
<trkpt lat="50.649761" lon="5.395071"><time>2026-05-02T18:14:28Z</time></trkpt>
<trkpt lat="50.649169" lon="5.395307"><time>2026-05-02T18:24:28Z</time></trkpt>
</trkseg>
</trk>
<trk>
<name>lfxro19</name>
<cmt>q</cmt>
<desc>Roloux Sentier n°19 </desc>
<link href="https://chemins.be/roloux/sentier/19"/><trkseg>
<trkpt lat="50.651784" lon="5.401170"><time>2026-05-02T18:14:28Z</time></trkpt>
<trkpt lat="50.652348" lon="5.403090"><time>2026-05-02T18:24:28Z</time></trkpt>
</trkseg>
</trk>
<trk>
<name>lfxro20</name>
<cmt>q</cmt>
<desc>Roloux Sentier n°20 </desc>
<link href="https://chemins.be/roloux/sentier/20"/><trkseg>
<trkpt lat="50.648655" lon="5.403015"><time>2026-05-02T18:14:28Z</time></trkpt>
<trkpt lat="50.648178" lon="5.402328"><time>2026-05-02T18:24:28Z</time></trkpt>
<trkpt lat="50.647990" lon="5.398008"><time>2026-05-02T18:34:28Z</time></trkpt>
</trkseg>
</trk>
<trk>
<name>lfxro21</name>
<cmt>q</cmt>
<desc>Roloux Sentier n°21 </desc>
<link href="https://chemins.be/roloux/sentier/21"/><trkseg>
<trkpt lat="50.651350" lon="5.391950"><time>2026-05-02T18:14:28Z</time></trkpt>
<trkpt lat="50.654288" lon="5.390527"><time>2026-05-02T18:24:28Z</time></trkpt>
</trkseg>
</trk>
<trk>
<name>lfxro6</name>
<cmt>s</cmt>
<desc>Roloux Chemin n°6 </desc>
<link href="https://chemins.be/roloux/chemin/6"/><trkseg>
<trkpt lat="50.646191" lon="5.400721"><time>2026-05-02T18:14:28Z</time></trkpt>
<trkpt lat="50.644712" lon="5.401064"><time>2026-05-02T18:24:28Z</time></trkpt>
<trkpt lat="50.643759" lon="5.401565"><time>2026-05-02T18:34:28Z</time></trkpt>
<trkpt lat="50.641254" lon="5.401188"><time>2026-05-02T18:44:28Z</time></trkpt>
</trkseg>
</trk>
<trk>
<name>lfxro7</name>
<cmt>r</cmt>
<desc>Roloux Chemin n°7 </desc>
<link href="https://chemins.be/roloux/chemin/7"/><trkseg>
<trkpt lat="50.648868" lon="5.396719"><time>2026-05-02T18:14:28Z</time></trkpt>
<trkpt lat="50.649144" lon="5.397093"><time>2026-05-02T18:24:28Z</time></trkpt>
</trkseg></trk>
<trk>
<name>lfxro7</name>
<cmt>q</cmt>
<desc>Roloux Chemin n°7 </desc>
<link href="https://chemins.be/roloux/chemin/7"/><trkseg>
<trkpt lat="50.649144" lon="5.397093"><time>2026-05-02T18:24:28Z</time></trkpt>
<trkpt lat="50.650695" lon="5.398555"><time>2026-05-02T18:34:28Z</time></trkpt>
</trkseg>
</trk>
<trk>
<name>lfxro8</name>
<cmt>s</cmt>
<desc>Roloux Chemin n°8 Chemin des Rêts</desc>
<link href="https://chemins.be/roloux/chemin/8"/><trkseg>
<trkpt lat="50.657336" lon="5.393141"><time>2026-05-02T18:14:28Z</time></trkpt>
<trkpt lat="50.656833" lon="5.394151"><time>2026-05-02T18:24:28Z</time></trkpt>
</trkseg></trk>
<trk>
<name>lfxro8</name>
<cmt>r</cmt>
<desc>Roloux Chemin n°8 Chemin des Rêts</desc>
<link href="https://chemins.be/roloux/chemin/8"/><trkseg>
<trkpt lat="50.656833" lon="5.394151"><time>2026-05-02T18:24:28Z</time></trkpt>
<trkpt lat="50.654397" lon="5.398599"><time>2026-05-02T18:34:28Z</time></trkpt>
<trkpt lat="50.653243" lon="5.400456"><time>2026-05-02T18:44:28Z</time></trkpt>
<trkpt lat="50.653037" lon="5.400515"><time>2026-05-02T18:54:28Z</time></trkpt>
</trkseg></trk>
<trk>
<name>lfxro8</name>
<cmt>d</cmt>
<desc>Roloux Chemin n°8 Chemin des Rêts</desc>
<link href="https://chemins.be/roloux/chemin/8"/><trkseg>
<trkpt lat="50.653037" lon="5.400515"><time>2026-05-02T18:54:28Z</time></trkpt>
<trkpt lat="50.652817" lon="5.401243"><time>2026-05-02T19:04:28Z</time></trkpt>
</trkseg></trk>
<trk>
<name>lfxro8</name>
<cmt>q</cmt>
<desc>Roloux Chemin n°8 Chemin des Rêts</desc>
<link href="https://chemins.be/roloux/chemin/8"/><trkseg>
<trkpt lat="50.652817" lon="5.401243"><time>2026-05-02T19:04:28Z</time></trkpt>
<trkpt lat="50.652741" lon="5.401468"><time>2026-05-02T19:14:28Z</time></trkpt>
</trkseg></trk>
<trk>
<name>lfxro8</name>
<cmt>v</cmt>
<desc>Roloux Chemin n°8 Chemin des Rêts</desc>
<link href="https://chemins.be/roloux/chemin/8"/><trkseg>
<trkpt lat="50.652741" lon="5.401468"><time>2026-05-02T19:14:28Z</time></trkpt>
<trkpt lat="50.652219" lon="5.403830"><time>2026-05-02T19:24:28Z</time></trkpt>
</trkseg>
</trk>
</gpx>